DELTA 1 DEB, 10864

Orbit data source: Space-Track

DELTA 1 DEB, 10864 is space debris in LEO originally from a launch on Thu, 29 Jul 1976 UTC launched from the Air Force Western Test Range (AFWTR). Debris objects in space refer to the collection of defunct objects orbiting the Earth. Examples of debris include non-operational satellites, rocket bodies, and fragments generated from explosions, collisions, or faulty payload assembly.

Loading next visibility...
Identifier
10864, 1976-077CS
Orbit
LEO
Country
Flag of USUS
Related business
Manufacturer
Unknown
Mission
Spacecraft
Bus & Motor
Unknown
Mass
Unknown
Launch date (UTC)
1976-07-29 (50 years ago)
Launch vehicle
Unknown
Launch site
Air Force Western Test Range (AFWTR)
Object type
Payload
Rocket body
Debris
Shape & HBR
Unknown shape, 0.2 m
Radar Cross Section
Medium (>0.1 m² and <1 m²)

Expand to show TLE details & history
Last TLE update: 3 days ago

TLE from 3 days ago
0 DELTA 1 DEB
1 10864U 76077CS  26171.45430713  .00000443  00000-0  65816-2 0  9999
2 10864 101.1012 248.5272 0372410   0.0009  22.8287 11.75824713131725
Epoch: 2026-06-20T10:54Z
TLE epoch observation values (Epoch: 2026-06-20T10:54:12.136Z)
Latitude
24.09491°
Longitude
171.29858°
Altitude
1,514.865 km
Speed
7.23 km/s
True Right ascension
16h 14m 04s
True Declination
23° 58' 45"
Sunlit
Object was in full shadow at epoch
Visualization orbit readout
Latitude
Unknown
Longitude
Unknown
Altitude
Unknown
Speed
Unknown
Apparent Right ascension
Unknown
Apparent Declination
Unknown
Sunlit
N/A
Visualization observer readout
Local Sidereal Time
10:02:29
Azimuth
Unknown
Elevation
Unknown
Doppler factor
Unknown
Orbital elements
Apogee altitude
2,092.689 km
Perigee altitude
1,484.418 km
Semi-major axis
8,166.69 km
Eccentricity
0.03724
Inclination
101.1012°
RAAN
248.5272°
Arg. of periapsis
0.0009°
True anomaly
24.55821°
Mean anomaly
22.8287°
Eccentric anomaly
23.68588°
Mean motion
2.94086 °/min
Orbital period
122.41 mins
BSTAR
0.0065816
Loading maneuver chart data...
Computing Atmospheric mass density...
Loading historical data...
Loading historical data...
Loading historical data...
Loading historical data...
Loading historical data...
Loading historical data...
Loading historical data...

Documentation

Showing up to 5 results
|